User: anonymous   Login
Location: Invercargill
(46.4000°S, 168.3500°E)
Time: 06:30:05
(UTC+12:00)
Language:

SL-16 R/B - Orbit

View from above orbital plane
View from above orbital plane
View from above satellite
View from above satellite

Ground track
Ground track

The orbit data is extracted from the following two-line orbital elements,

1 28353U 04021B   21210.89762276  .00000153  00000-0  10511-3 0  9991
2 28353  71.0014 164.7917 0003073  63.9614 296.1825 14.14252464884740
Epoch (UTC): 29 July 2021 21:32:34
Eccentricity: 0.0003073
inclination: 71.0014°
perigee height: 842 km
apogee height: 847 km
right ascension of ascending node: 164.7917°
argument of perigee: 63.9614°
revolutions per day: 14.14252464
mean anomaly at epoch: 296.1825°
orbit number at epoch: 88474

The dashed part of the orbit path shows where the satellite is in the earth's shadow,  

DLR